Time,TemperatureF,DewpointF,PressureIn,WindDirection,WindDirectionDegrees,WindSpeedMPH,WindSpeedGustMPH,Humidity,HourlyPrecipIn,Conditions,Clouds,dailyrainin,SoftwareType,DateUTC
2013-08-15 00:01:00,58.2,54.0,29.96,ESE,115,0.0,5.0,86,0.00,,,0.00,Wunderground PWS Mod,2013-08-15 04:01:00,
2013-08-15 00:02:00,58.2,54.0,29.96,ESE,115,0.0,5.0,86,0.00,,,0.00,Wunderground PWS Mod,2013-08-15 04:02:00,
2013-08-15 00:04:00,58.2,54.0,29.96,ESE,115,0.0,5.0,86,0.00,,,0.00,Wunderground PWS Mod,2013-08-15 04:04:00,
2013-08-15 00:08:00,58.1,54.2,29.96,ESE,115,0.0,0.0,87,0.00,,,0.00,Wunderground PWS Mod,2013-08-15 04:08:00,
2013-08-15 00:12:00,58.1,54.2,29.96,ESE,115,0.0,0.0,87,0.00,,,0.00,Wunderground PWS Mod,2013-08-15 04:12:00,
2013-08-15 00:14:00,58.0,54.2,29.97,N/A,-737280,0.0,0.0,87,0.00,,,0.00,Wunderground PWS Mod,2013-08-15 04:14:00,
2013-08-15 00:16:00,58.0,54.2,29.97,N/A,-737280,0.0,0.0,87,0.00,,,0.00,Wunderground PWS Mod,2013-08-15 04:16:00,
2013-08-15 00:17:00,58.0,54.2,29.96,ESE,115,0.0,0.0,87,0.00,,,0.00,Wunderground PWS Mod,2013-08-15 04:17:00,
2013-08-15 00:18:00,58.0,54.2,29.97,N/A,-737280,0.0,0.0,87,0.00,,,0.00,Wunderground PWS Mod,2013-08-15 04:18:00,
2013-08-15 00:20:00,58.0,54.2,29.97,N/A,-737280,0.0,0.0,87,0.00,,,0.00,Wunderground PWS Mod,2013-08-15 04:20:00,
2013-08-15 00:22:00,58.0,54.2,29.97,ESE,115,0.0,0.0,87,0.00,,,0.00,Wunderground PWS Mod,2013-08-15 04:22:00,
2013-08-15 00:24:00,58.0,54.2,29.97,N/A,-737280,0.0,0.0,87,0.00,,,0.00,Wunderground PWS Mod,2013-08-15 04:24:00,
2013-08-15 00:26:00,58.0,54.2,29.97,N/A,-737280,0.0,0.0,87,0.00,,,0.00,Wunderground PWS Mod,2013-08-15 04:26:00,
2013-08-15 00:28:00,58.0,54.2,29.97,ESE,115,0.0,0.0,87,0.00,,,0.00,Wunderground PWS Mod,2013-08-15 04:28:00,
2013-08-15 00:30:00,58.0,54.2,29.97,N/A,-737280,0.0,0.0,87,0.00,,,0.00,Wunderground PWS Mod,2013-08-15 04:30:00,
2013-08-15 00:32:00,58.0,54.2,29.97,N/A,-737280,0.0,0.0,87,0.00,,,0.00,Wunderground PWS Mod,2013-08-15 04:32:00,
2013-08-15 00:33:00,58.0,54.2,29.97,ESE,115,0.0,0.0,87,0.00,,,0.00,Wunderground PWS Mod,2013-08-15 04:33:00,
2013-08-15 00:34:00,58.0,54.2,29.97,N/A,-737280,0.0,0.0,87,0.00,,,0.00,Wunderground PWS Mod,2013-08-15 04:34:00,
2013-08-15 00:36:00,58.0,54.2,29.97,N/A,-737280,0.0,0.0,87,0.00,,,0.00,Wunderground PWS Mod,2013-08-15 04:36:00,
2013-08-15 00:38:00,58.0,54.5,29.97,ESE,115,0.0,0.0,88,0.00,,,0.00,Wunderground PWS Mod,2013-08-15 04:38:00,
2013-08-15 00:40:00,58.0,54.2,29.97,N/A,-737280,0.0,0.0,87,0.00,,,0.00,Wunderground PWS Mod,2013-08-15 04:40:00,
2013-08-15 00:42:00,58.0,54.2,29.97,N/A,-737280,0.0,0.0,87,0.00,,,0.00,Wunderground PWS Mod,2013-08-15 04:42:00,
2013-08-15 00:44:00,57.9,54.4,29.97,ESE,105,0.0,0.0,88,0.00,,,0.00,Wunderground PWS Mod,2013-08-15 04:44:00,
2013-08-15 00:46:00,57.5,54.3,29.98,N/A,-737280,0.0,0.0,89,0.00,,,0.00,Wunderground PWS Mod,2013-08-15 04:46:00,
2013-08-15 00:48:00,57.5,54.3,29.98,N/A,-737280,0.0,0.0,89,0.00,,,0.00,Wunderground PWS Mod,2013-08-15 04:48:00,
2013-08-15 00:50:00,57.8,54.3,29.97,ESE,105,0.0,0.0,88,0.00,,,0.00,Wunderground PWS Mod,2013-08-15 04:50:00,
2013-08-15 00:52:00,57.5,54.3,29.98,N/A,-737280,0.0,0.0,89,0.00,,,0.00,Wunderground PWS Mod,2013-08-15 04:52:00,
2013-08-15 00:54:00,57.5,54.3,29.98,N/A,-737280,0.0,0.0,89,0.00,,,0.00,Wunderground PWS Mod,2013-08-15 04:54:00,
2013-08-15 00:55:00,57.6,54.1,29.98,ESE,105,0.0,0.0,88,0.00,,,0.00,Wunderground PWS Mod,2013-08-15 04:55:00,
2013-08-15 00:56:00,57.5,54.3,29.98,N/A,-737280,0.0,0.0,89,0.00,,,0.00,Wunderground PWS Mod,2013-08-15 04:56:00,
2013-08-15 00:58:00,57.5,54.3,29.98,N/A,-737280,0.0,0.0,89,0.00,,,0.00,Wunderground PWS Mod,2013-08-15 04:58:00,
2013-08-15 01:00:00,57.5,54.0,29.97,ESE,105,0.0,0.0,88,0.00,,,0.00,Wunderground PWS Mod,2013-08-15 05:00:00,
2013-08-15 01:02:00,57.5,54.3,29.98,N/A,-737280,0.0,0.0,89,0.00,,,0.00,Wunderground PWS Mod,2013-08-15 05:02:00,
2013-08-15 01:04:00,57.5,54.3,29.98,N/A,-737280,0.0,0.0,89,0.00,,,0.00,Wunderground PWS Mod,2013-08-15 05:04:00,
2013-08-15 01:05:00,57.5,54.3,29.98,ESE,105,0.0,0.0,89,0.00,,,0.00,Wunderground PWS Mod,2013-08-15 05:05:00,
2013-08-15 01:06:00,57.5,54.3,29.98,N/A,-737280,0.0,0.0,89,0.00,,,0.00,Wunderground PWS Mod,2013-08-15 05:06:00,
2013-08-15 01:08:00,57.5,54.3,29.98,N/A,-737280,0.0,0.0,89,0.00,,,0.00,Wunderground PWS Mod,2013-08-15 05:08:00,
2013-08-15 01:10:00,57.5,54.3,29.98,N/A,-737280,0.0,0.0,89,0.00,,,0.00,Wunderground PWS Mod,2013-08-15 05:10:00,
2013-08-15 01:11:00,57.3,54.1,29.98,ESE,103,0.0,0.0,89,0.00,,,0.00,Wunderground PWS Mod,2013-08-15 05:11:00,
2013-08-15 01:12:00,57.5,54.3,29.98,N/A,-737280,0.0,0.0,89,0.00,,,0.00,Wunderground PWS Mod,2013-08-15 05:12:00,
2013-08-15 01:14:00,57.5,54.3,29.98,N/A,-737280,0.0,0.0,89,0.00,,,0.00,Wunderground PWS Mod,2013-08-15 05:14:00,
2013-08-15 01:16:00,57.2,54.0,29.97,ESE,103,0.0,0.0,89,0.00,,,0.00,Wunderground PWS Mod,2013-08-15 05:16:00,
2013-08-15 01:18:00,57.2,54.3,29.98,N/A,-737280,0.0,0.0,90,0.00,,,0.00,Wunderground PWS Mod,2013-08-15 05:18:00,
2013-08-15 01:20:00,57.2,54.3,29.98,N/A,-737280,0.0,0.0,90,0.00,,,0.00,Wunderground PWS Mod,2013-08-15 05:20:00,
2013-08-15 01:21:00,57.3,53.8,29.97,East,87,0.0,0.0,88,0.00,,,0.00,Wunderground PWS Mod,2013-08-15 05:21:00,
2013-08-15 01:22:00,57.2,54.3,29.98,N/A,-737280,0.0,0.0,90,0.00,,,0.00,Wunderground PWS Mod,2013-08-15 05:22:00,
2013-08-15 01:24:00,57.2,54.3,29.98,N/A,-737280,0.0,0.0,90,0.00,,,0.00,Wunderground PWS Mod,2013-08-15 05:24:00,
2013-08-15 01:26:00,57.2,54.3,29.98,N/A,-737280,0.0,0.0,90,0.00,,,0.00,Wunderground PWS Mod,2013-08-15 05:26:00,
2013-08-15 01:27:00,57.3,54.1,29.98,East,87,0.0,0.0,89,0.00,,,0.00,Wunderground PWS Mod,2013-08-15 05:27:00,
2013-08-15 01:28:00,57.2,54.3,29.98,N/A,-737280,0.0,0.0,90,0.00,,,0.00,Wunderground PWS Mod,2013-08-15 05:28:00,
2013-08-15 01:30:00,57.2,54.3,29.98,N/A,-737280,0.0,0.0,90,0.00,,,0.00,Wunderground PWS Mod,2013-08-15 05:30:00,
2013-08-15 01:32:00,57.2,54.3,29.98,N/A,-737280,0.0,0.0,90,0.00,,,0.00,Wunderground PWS Mod,2013-08-15 05:32:00,
2013-08-15 01:33:00,57.2,54.3,29.98,East,88,0.0,0.0,90,0.00,,,0.00,Wunderground PWS Mod,2013-08-15 05:33:00,
2013-08-15 01:34:00,57.2,54.3,29.98,N/A,-737280,0.0,0.0,90,0.00,,,0.00,Wunderground PWS Mod,2013-08-15 05:34:00,
2013-08-15 01:36:00,57.2,54.3,29.98,N/A,-737280,0.0,0.0,90,0.00,,,0.00,Wunderground PWS Mod,2013-08-15 05:36:00,
2013-08-15 01:38:00,57.0,54.1,29.98,East,88,0.0,0.0,90,0.00,,,0.00,Wunderground PWS Mod,2013-08-15 05:38:00,
2013-08-15 01:40:00,57.2,54.3,29.98,N/A,-737280,0.0,0.0,90,0.00,,,0.00,Wunderground PWS Mod,2013-08-15 05:40:00,
2013-08-15 01:42:00,57.2,54.3,29.98,N/A,-737280,0.0,0.0,90,0.00,,,0.00,Wunderground PWS Mod,2013-08-15 05:42:00,
2013-08-15 01:44:00,56.9,53.4,29.98,East,88,0.0,0.0,88,0.00,,,0.00,Wunderground PWS Mod,2013-08-15 05:44:00,
2013-08-15 01:46:00,57.1,53.6,29.98,N/A,-737280,0.0,0.0,88,0.00,,,0.00,Wunderground PWS Mod,2013-08-15 05:46:00,
2013-08-15 01:48:00,57.1,53.6,29.98,N/A,-737280,0.0,0.0,88,0.00,,,0.00,Wunderground PWS Mod,2013-08-15 05:48:00,
2013-08-15 01:50:00,57.0,53.5,29.98,East,88,0.0,0.0,88,0.00,,,0.00,Wunderground PWS Mod,2013-08-15 05:50:00,
2013-08-15 01:52:00,57.1,53.6,29.98,N/A,-737280,0.0,0.0,88,0.00,,,0.00,Wunderground PWS Mod,2013-08-15 05:52:00,
2013-08-15 01:54:00,57.1,53.6,29.98,N/A,-737280,0.0,0.0,88,0.00,,,0.00,Wunderground PWS Mod,2013-08-15 05:54:00,
2013-08-15 01:56:00,57.1,53.6,29.98,East,88,0.0,0.0,88,0.00,,,0.00,Wunderground PWS Mod,2013-08-15 05:56:00,
2013-08-15 01:58:00,57.1,53.6,29.98,N/A,-737280,0.0,0.0,88,0.00,,,0.00,Wunderground PWS Mod,2013-08-15 05:58:00,
2013-08-15 02:00:00,57.1,53.6,29.98,N/A,-737280,0.0,0.0,88,0.00,,,0.00,Wunderground PWS Mod,2013-08-15 06:00:00,
2013-08-15 02:01:00,57.1,53.6,29.98,East,88,0.0,0.0,88,0.00,,,0.00,Wunderground PWS Mod,2013-08-15 06:01:00,
2013-08-15 02:02:00,57.1,53.6,29.98,N/A,-737280,0.0,0.0,88,0.00,,,0.00,Wunderground PWS Mod,2013-08-15 06:02:00,
2013-08-15 02:04:00,57.1,53.6,29.98,N/A,-737280,0.0,0.0,88,0.00,,,0.00,Wunderground PWS Mod,2013-08-15 06:04:00,
2013-08-15 02:06:00,57.0,53.5,29.98,East,88,0.0,0.0,88,0.00,,,0.00,Wunderground PWS Mod,2013-08-15 06:06:00,
2013-08-15 02:08:00,57.1,53.6,29.98,N/A,-737280,0.0,0.0,88,0.00,,,0.00,Wunderground PWS Mod,2013-08-15 06:08:00,
2013-08-15 02:10:00,57.1,53.6,29.98,N/A,-737280,0.0,0.0,88,0.00,,,0.00,Wunderground PWS Mod,2013-08-15 06:10:00,
2013-08-15 02:12:00,56.8,53.6,29.98,East,88,0.0,0.0,89,0.00,,,0.00,Wunderground PWS Mod,2013-08-15 06:12:00,
2013-08-15 02:14:00,57.1,53.6,29.98,N/A,-737280,0.0,0.0,88,0.00,,,0.00,Wunderground PWS Mod,2013-08-15 06:14:00,
2013-08-15 02:16:00,56.5,53.3,29.99,N/A,-737280,0.0,0.0,89,0.00,,,0.00,Wunderground PWS Mod,2013-08-15 06:16:00,
2013-08-15 02:18:00,56.7,53.5,29.98,East,88,0.0,0.0,89,0.00,,,0.00,Wunderground PWS Mod,2013-08-15 06:18:00,
2013-08-15 02:20:00,56.5,53.3,29.99,N/A,-737280,0.0,0.0,89,0.00,,,0.00,Wunderground PWS Mod,2013-08-15 06:20:00,
2013-08-15 02:22:00,56.5,53.3,29.99,N/A,-737280,0.0,0.0,89,0.00,,,0.00,Wunderground PWS Mod,2013-08-15 06:22:00,
2013-08-15 02:23:00,56.6,53.4,29.99,East,88,0.0,0.0,89,0.00,,,0.00,Wunderground PWS Mod,2013-08-15 06:23:00,
2013-08-15 02:24:00,56.5,53.3,29.99,N/A,-737280,0.0,0.0,89,0.00,,,0.00,Wunderground PWS Mod,2013-08-15 06:24:00,
2013-08-15 02:26:00,56.5,53.3,29.99,N/A,-737280,0.0,0.0,89,0.00,,,0.00,Wunderground PWS Mod,2013-08-15 06:26:00,
2013-08-15 02:28:00,56.6,53.4,29.99,East,88,0.0,0.0,89,0.00,,,0.00,Wunderground PWS Mod,2013-08-15 06:28:00,
2013-08-15 02:30:00,56.5,53.3,29.99,N/A,-737280,0.0,0.0,89,0.00,,,0.00,Wunderground PWS Mod,2013-08-15 06:30:00,
2013-08-15 02:32:00,56.5,53.3,29.99,N/A,-737280,0.0,0.0,89,0.00,,,0.00,Wunderground PWS Mod,2013-08-15 06:32:00,
2013-08-15 02:34:00,56.5,53.3,29.99,East,88,0.0,0.0,89,0.00,,,0.00,Wunderground PWS Mod,2013-08-15 06:34:00,
2013-08-15 02:36:00,56.5,53.3,29.99,N/A,-737280,0.0,0.0,89,0.00,,,0.00,Wunderground PWS Mod,2013-08-15 06:36:00,
2013-08-15 02:38:00,56.5,53.3,29.99,N/A,-737280,0.0,0.0,89,0.00,,,0.00,Wunderground PWS Mod,2013-08-15 06:38:00,
2013-08-15 02:40:00,56.4,53.5,29.99,East,88,0.0,0.0,90,0.00,,,0.00,Wunderground PWS Mod,2013-08-15 06:40:00,
2013-08-15 02:42:00,56.5,53.3,29.99,N/A,-737280,0.0,0.0,89,0.00,,,0.00,Wunderground PWS Mod,2013-08-15 06:42:00,
2013-08-15 02:44:00,56.5,53.3,29.99,N/A,-737280,0.0,0.0,89,0.00,,,0.00,Wunderground PWS Mod,2013-08-15 06:44:00,
2013-08-15 02:45:00,56.3,53.4,29.99,East,88,0.0,0.0,90,0.00,,,0.00,Wunderground PWS Mod,2013-08-15 06:45:00,
2013-08-15 02:46:00,56.2,53.3,30.00,N/A,-737280,0.0,0.0,90,0.00,,,0.00,Wunderground PWS Mod,2013-08-15 06:46:00,
2013-08-15 02:48:00,56.2,53.3,30.00,N/A,-737280,0.0,0.0,90,0.00,,,0.00,Wunderground PWS Mod,2013-08-15 06:48:00,
2013-08-15 02:50:00,56.3,53.4,29.99,East,88,0.0,0.0,90,0.00,,,0.00,Wunderground PWS Mod,2013-08-15 06:50:00,
2013-08-15 02:52:00,56.2,53.3,30.00,N/A,-737280,0.0,0.0,90,0.00,,,0.00,Wunderground PWS Mod,2013-08-15 06:52:00,
2013-08-15 02:54:00,56.2,53.3,30.00,N/A,-737280,0.0,0.0,90,0.00,,,0.00,Wunderground PWS Mod,2013-08-15 06:54:00,
2013-08-15 02:55:00,56.2,53.3,30.00,East,88,0.0,0.0,90,0.00,,,0.00,Wunderground PWS Mod,2013-08-15 06:55:00,
2013-08-15 02:56:00,56.2,53.3,30.00,N/A,-737280,0.0,0.0,90,0.00,,,0.00,Wunderground PWS Mod,2013-08-15 06:56:00,
2013-08-15 02:58:00,56.2,53.3,30.00,N/A,-737280,0.0,0.0,90,0.00,,,0.00,Wunderground PWS Mod,2013-08-15 06:58:00,
2013-08-15 03:00:00,56.2,53.3,30.00,N/A,-737280,0.0,0.0,90,0.00,,,0.00,Wunderground PWS Mod,2013-08-15 07:00:00,
2013-08-15 03:01:00,56.2,53.3,30.00,East,88,0.0,0.0,90,0.00,,,0.00,Wunderground PWS Mod,2013-08-15 07:01:00,
2013-08-15 03:02:00,56.2,53.3,30.00,N/A,-737280,0.0,0.0,90,0.00,,,0.00,Wunderground PWS Mod,2013-08-15 07:02:00,
2013-08-15 03:04:00,56.2,53.3,30.00,N/A,-737280,0.0,0.0,90,0.00,,,0.00,Wunderground PWS Mod,2013-08-15 07:04:00,
2013-08-15 03:06:00,56.2,53.3,30.00,East,88,0.0,0.0,90,0.00,,,0.00,Wunderground PWS Mod,2013-08-15 07:06:00,
2013-08-15 03:08:00,56.2,53.3,30.00,N/A,-737280,0.0,0.0,90,0.00,,,0.00,Wunderground PWS Mod,2013-08-15 07:08:00,
2013-08-15 03:10:00,56.2,53.3,30.00,N/A,-737280,0.0,0.0,90,0.00,,,0.00,Wunderground PWS Mod,2013-08-15 07:10:00,
2013-08-15 03:12:00,56.2,53.3,30.00,East,88,0.0,0.0,90,0.00,,,0.00,Wunderground PWS Mod,2013-08-15 07:12:00,
2013-08-15 03:14:00,56.2,53.3,30.00,N/A,-737280,0.0,0.0,90,0.00,,,0.00,Wunderground PWS Mod,2013-08-15 07:14:00,
2013-08-15 03:16:00,55.9,53.3,30.00,N/A,-737280,0.0,0.0,91,0.00,,,0.00,Wunderground PWS Mod,2013-08-15 07:16:00,
2013-08-15 03:17:00,56.1,53.2,30.00,East,88,0.0,0.0,90,0.00,,,0.00,Wunderground PWS Mod,2013-08-15 07:17:00,
2013-08-15 03:18:00,55.9,53.3,30.00,N/A,-737280,0.0,0.0,91,0.00,,,0.00,Wunderground PWS Mod,2013-08-15 07:18:00,
2013-08-15 03:20:00,55.9,53.3,30.00,N/A,-737280,0.0,0.0,91,0.00,,,0.00,Wunderground PWS Mod,2013-08-15 07:20:00,
2013-08-15 03:22:00,56.0,53.1,30.00,East,88,0.0,0.0,90,0.00,,,0.00,Wunderground PWS Mod,2013-08-15 07:22:00,
2013-08-15 03:24:00,55.9,53.3,30.00,N/A,-737280,0.0,0.0,91,0.00,,,0.00,Wunderground PWS Mod,2013-08-15 07:24:00,
2013-08-15 03:26:00,55.9,53.3,30.00,N/A,-737280,0.0,0.0,91,0.00,,,0.00,Wunderground PWS Mod,2013-08-15 07:26:00,
2013-08-15 03:28:00,55.9,53.0,30.00,East,88,0.0,0.0,90,0.00,,,0.00,Wunderground PWS Mod,2013-08-15 07:28:00,
2013-08-15 03:30:00,55.9,53.3,30.00,N/A,-737280,0.0,0.0,91,0.00,,,0.00,Wunderground PWS Mod,2013-08-15 07:30:00,
2013-08-15 03:32:00,55.9,53.3,30.00,N/A,-737280,0.0,0.0,91,0.00,,,0.00,Wunderground PWS Mod,2013-08-15 07:32:00,
2013-08-15 03:34:00,55.9,53.3,30.00,East,88,0.0,0.0,91,0.00,,,0.00,Wunderground PWS Mod,2013-08-15 07:34:00,
2013-08-15 03:36:00,55.9,53.3,30.00,N/A,-737280,0.0,0.0,91,0.00,,,0.00,Wunderground PWS Mod,2013-08-15 07:36:00,
2013-08-15 03:38:00,55.9,53.3,30.00,N/A,-737280,0.0,0.0,91,0.00,,,0.00,Wunderground PWS Mod,2013-08-15 07:38:00,
2013-08-15 03:39:00,55.8,53.2,30.00,East,88,0.0,0.0,91,0.00,,,0.00,Wunderground PWS Mod,2013-08-15 07:39:00,
2013-08-15 03:40:00,55.9,53.3,30.00,N/A,-737280,0.0,0.0,91,0.00,,,0.00,Wunderground PWS Mod,2013-08-15 07:40:00,
2013-08-15 03:42:00,55.9,53.3,30.00,N/A,-737280,0.0,0.0,91,0.00,,,0.00,Wunderground PWS Mod,2013-08-15 07:42:00,
2013-08-15 03:44:00,55.9,53.3,30.00,N/A,-737280,0.0,0.0,91,0.00,,,0.00,Wunderground PWS Mod,2013-08-15 07:44:00,
2013-08-15 03:45:00,55.6,53.0,30.00,East,88,0.0,0.0,91,0.00,,,0.00,Wunderground PWS Mod,2013-08-15 07:45:00,
2013-08-15 03:46:00,55.4,53.1,30.00,N/A,-737280,0.0,0.0,92,0.00,,,0.00,Wunderground PWS Mod,2013-08-15 07:46:00,
2013-08-15 03:48:00,55.4,53.1,30.00,N/A,-737280,0.0,0.0,92,0.00,,,0.00,Wunderground PWS Mod,2013-08-15 07:48:00,
2013-08-15 03:50:00,55.6,53.0,30.00,East,88,0.0,0.0,91,0.00,,,0.00,Wunderground PWS Mod,2013-08-15 07:50:00,
2013-08-15 03:52:00,55.4,53.1,30.00,N/A,-737280,0.0,0.0,92,0.00,,,0.00,Wunderground PWS Mod,2013-08-15 07:52:00,
2013-08-15 03:54:00,55.4,53.1,30.00,N/A,-737280,0.0,0.0,92,0.00,,,0.00,Wunderground PWS Mod,2013-08-15 07:54:00,
2013-08-15 03:56:00,55.5,52.9,30.00,East,88,0.0,0.0,91,0.00,,,0.00,Wunderground PWS Mod,2013-08-15 07:56:00,
2013-08-15 04:01:00,55.4,52.8,30.00,East,88,0.0,0.0,91,0.00,,,0.00,Wunderground PWS Mod,2013-08-15 08:01:00,
2013-08-15 04:07:00,55.4,53.1,30.00,East,88,0.0,0.0,92,0.00,,,0.00,Wunderground PWS Mod,2013-08-15 08:07:00,
2013-08-15 04:12:00,55.3,53.0,30.00,East,88,0.0,0.0,92,0.00,,,0.00,Wunderground PWS Mod,2013-08-15 08:12:00,
2013-08-15 04:14:00,55.4,53.1,30.00,N/A,-737280,0.0,0.0,92,0.00,,,0.00,Wunderground PWS Mod,2013-08-15 08:14:00,
2013-08-15 04:17:00,55.3,52.7,30.00,East,88,0.0,0.0,91,0.00,,,0.00,Wunderground PWS Mod,2013-08-15 08:17:00,
2013-08-15 04:23:00,55.3,53.0,30.00,East,88,0.0,0.0,92,0.00,,,0.00,Wunderground PWS Mod,2013-08-15 08:23:00,
2013-08-15 04:29:00,55.1,52.8,30.00,East,88,0.0,0.0,92,0.00,,,0.00,Wunderground PWS Mod,2013-08-15 08:29:00,
2013-08-15 04:34:00,55.1,52.8,30.00,East,88,0.0,0.0,92,0.00,,,0.00,Wunderground PWS Mod,2013-08-15 08:34:00,
2013-08-15 04:40:00,55.1,52.8,30.00,East,88,0.0,0.0,92,0.00,,,0.00,Wunderground PWS Mod,2013-08-15 08:40:00,
2013-08-15 04:45:00,55.1,52.8,30.00,East,88,0.0,0.0,92,0.00,,,0.00,Wunderground PWS Mod,2013-08-15 08:45:00,
2013-08-15 04:50:00,54.9,52.6,30.00,East,88,0.0,0.0,92,0.00,,,0.00,Wunderground PWS Mod,2013-08-15 08:50:00,
2013-08-15 04:56:00,54.8,52.8,30.00,East,88,0.0,0.0,93,0.00,,,0.00,Wunderground PWS Mod,2013-08-15 08:56:00,
2013-08-15 05:01:00,54.6,52.6,30.00,East,88,0.0,0.0,93,0.00,,,0.00,Wunderground PWS Mod,2013-08-15 09:01:00,
2013-08-15 05:06:00,54.4,52.4,30.01,East,88,0.0,0.0,93,0.00,,,0.00,Wunderground PWS Mod,2013-08-15 09:06:00,
2013-08-15 05:12:00,54.3,52.3,30.01,East,88,0.0,0.0,93,0.00,,,0.00,Wunderground PWS Mod,2013-08-15 09:12:00,
2013-08-15 05:17:00,54.2,52.5,30.01,East,88,0.0,0.0,94,0.00,,,0.00,Wunderground PWS Mod,2013-08-15 09:17:00,
2013-08-15 05:22:00,54.0,52.3,30.01,East,88,0.0,0.0,94,0.00,,,0.00,Wunderground PWS Mod,2013-08-15 09:22:00,
2013-08-15 05:28:00,53.9,52.2,30.01,East,88,0.0,0.0,94,0.00,,,0.00,Wunderground PWS Mod,2013-08-15 09:28:00,
2013-08-15 05:34:00,54.0,52.3,30.01,North,355,0.0,0.0,94,0.00,,,0.00,Wunderground PWS Mod,2013-08-15 09:34:00,
2013-08-15 05:39:00,54.0,52.3,30.02,North,355,0.0,0.0,94,0.00,,,0.00,Wunderground PWS Mod,2013-08-15 09:39:00,
2013-08-15 05:45:00,54.0,52.3,30.02,North,355,0.0,0.0,94,0.00,,,0.00,Wunderground PWS Mod,2013-08-15 09:45:00,
2013-08-15 05:50:00,54.1,52.4,30.02,North,355,0.0,0.0,94,0.00,,,0.00,Wunderground PWS Mod,2013-08-15 09:50:00,
2013-08-15 05:55:00,54.1,52.4,30.03,North,355,0.0,0.0,94,0.00,,,0.00,Wunderground PWS Mod,2013-08-15 09:55:00,
2013-08-15 06:01:00,54.1,52.4,30.03,North,355,0.0,0.0,94,0.00,,,0.00,Wunderground PWS Mod,2013-08-15 10:01:00,
2013-08-15 06:06:00,54.2,52.5,30.03,North,355,0.0,0.0,94,0.00,,,0.00,Wunderground PWS Mod,2013-08-15 10:06:00,
2013-08-15 06:12:00,54.1,52.4,30.03,North,355,0.0,0.0,94,0.00,,,0.00,Wunderground PWS Mod,2013-08-15 10:12:00,
2013-08-15 06:17:00,54.0,52.3,30.04,North,355,0.0,0.0,94,0.00,,,0.00,Wunderground PWS Mod,2013-08-15 10:17:00,
2013-08-15 06:22:00,53.9,52.2,30.04,North,355,0.0,0.0,94,0.00,,,0.00,Wunderground PWS Mod,2013-08-15 10:22:00,
2013-08-15 06:28:00,53.9,52.2,30.04,North,355,0.0,0.0,94,0.00,,,0.00,Wunderground PWS Mod,2013-08-15 10:28:00,
2013-08-15 06:33:00,54.0,52.3,30.04,North,355,0.0,0.0,94,0.00,,,0.00,Wunderground PWS Mod,2013-08-15 10:33:00,
2013-08-15 06:38:00,54.1,52.4,30.04,North,355,0.0,0.0,94,0.00,,,0.00,Wunderground PWS Mod,2013-08-15 10:38:00,
2013-08-15 06:44:00,54.3,52.6,30.04,North,355,0.0,0.0,94,0.00,,,0.00,Wunderground PWS Mod,2013-08-15 10:44:00,
2013-08-15 06:50:00,54.5,52.8,30.04,North,355,0.0,0.0,94,0.00,,,0.00,Wunderground PWS Mod,2013-08-15 10:50:00,
2013-08-15 06:55:00,54.7,52.7,30.04,North,355,0.0,0.0,93,0.00,,,0.00,Wunderground PWS Mod,2013-08-15 10:55:00,
2013-08-15 07:00:00,54.9,52.9,30.05,North,355,0.0,0.0,93,0.00,,,0.00,Wunderground PWS Mod,2013-08-15 11:00:00,
2013-08-15 07:05:00,55.0,53.0,30.05,North,355,0.0,0.0,93,0.00,,,0.00,Wunderground PWS Mod,2013-08-15 11:05:00,
2013-08-15 07:11:00,55.1,53.1,30.05,North,355,0.0,0.0,93,0.00,,,0.00,Wunderground PWS Mod,2013-08-15 11:11:00,
2013-08-15 07:16:00,55.3,53.0,30.05,North,355,0.0,0.0,92,0.00,,,0.00,Wunderground PWS Mod,2013-08-15 11:16:00,
2013-08-15 07:22:00,55.5,53.2,30.05,North,355,0.0,0.0,92,0.00,,,0.00,Wunderground PWS Mod,2013-08-15 11:22:00,
2013-08-15 07:27:00,55.9,53.9,30.05,North,355,0.0,1.0,93,0.00,,,0.00,Wunderground PWS Mod,2013-08-15 11:27:00,
2013-08-15 07:33:00,56.4,53.8,30.05,NE,38,0.0,0.0,91,0.00,,,0.00,Wunderground PWS Mod,2013-08-15 11:33:00,
2013-08-15 07:38:00,56.8,53.9,30.05,NE,38,0.0,0.0,90,0.00,,,0.00,Wunderground PWS Mod,2013-08-15 11:38:00,
2013-08-15 07:43:00,57.1,53.9,30.05,NNE,19,0.0,0.0,89,0.00,,,0.00,Wunderground PWS Mod,2013-08-15 11:43:00,
2013-08-15 07:48:00,57.3,54.1,30.06,NNE,19,0.0,0.0,89,0.00,,,0.00,Wunderground PWS Mod,2013-08-15 11:48:00,
2013-08-15 07:54:00,57.6,54.4,30.06,NNE,19,0.0,0.0,89,0.00,,,0.00,Wunderground PWS Mod,2013-08-15 11:54:00,
2013-08-15 07:59:00,58.0,54.5,30.06,NNE,19,0.0,0.0,88,0.00,,,0.00,Wunderground PWS Mod,2013-08-15 11:59:00,
2013-08-15 08:05:00,58.4,54.9,30.06,NNE,19,0.0,0.0,88,0.00,,,0.00,Wunderground PWS Mod,2013-08-15 12:05:00,
2013-08-15 08:10:00,58.9,55.0,30.06,NNE,14,0.0,0.0,87,0.00,,,0.00,Wunderground PWS Mod,2013-08-15 12:10:00,
2013-08-15 08:12:00,58.2,54.7,30.06,N/A,-737280,0.0,0.0,88,0.00,,,0.00,Wunderground PWS Mod,2013-08-15 12:12:00,
2013-08-15 08:17:00,59.3,55.4,30.06,NNE,14,0.0,0.0,87,0.00,,,0.00,Wunderground PWS Mod,2013-08-15 12:17:00,
2013-08-15 08:22:00,59.8,55.6,30.06,NNE,14,0.0,0.0,86,0.00,,,0.00,Wunderground PWS Mod,2013-08-15 12:22:00,
2013-08-15 08:28:00,60.1,55.6,30.06,NNE,14,0.0,0.0,85,0.00,,,0.00,Wunderground PWS Mod,2013-08-15 12:28:00,
2013-08-15 08:34:00,60.6,55.7,30.06,NNE,14,0.0,0.0,84,0.00,,,0.00,Wunderground PWS Mod,2013-08-15 12:34:00,
2013-08-15 08:39:00,61.0,55.8,30.06,NNE,20,0.0,0.0,83,0.00,,,0.00,Wunderground PWS Mod,2013-08-15 12:39:00,
2013-08-15 08:44:00,61.4,56.2,30.06,NNE,19,0.0,0.0,83,0.00,,,0.00,Wunderground PWS Mod,2013-08-15 12:44:00,
2013-08-15 08:50:00,61.8,55.9,30.06,NNE,19,0.0,0.0,81,0.00,,,0.00,Wunderground PWS Mod,2013-08-15 12:50:00,
2013-08-15 08:56:00,62.4,56.5,30.06,NNE,13,0.0,0.0,81,0.00,,,0.00,Wunderground PWS Mod,2013-08-15 12:56:00,
2013-08-15 09:01:00,62.6,56.3,30.06,NNE,21,0.0,0.0,80,0.00,,,0.00,Wunderground PWS Mod,2013-08-15 13:01:00,
2013-08-15 09:06:00,62.9,56.6,30.06,NNE,21,0.0,0.0,80,0.00,,,0.00,Wunderground PWS Mod,2013-08-15 13:06:00,
2013-08-15 09:12:00,63.2,57.3,30.06,NW,307,0.0,0.0,81,0.00,,,0.00,Wunderground PWS Mod,2013-08-15 13:12:00,
2013-08-15 09:17:00,63.6,55.5,30.06,North,9,0.0,0.0,75,0.00,,,0.00,Wunderground PWS Mod,2013-08-15 13:17:00,
2013-08-15 09:22:00,64.0,56.3,30.06,NW,318,0.0,0.0,76,0.00,,,0.00,Wunderground PWS Mod,2013-08-15 13:22:00,
2013-08-15 09:28:00,64.6,56.9,30.07,NW,319,0.0,0.0,76,0.00,,,0.00,Wunderground PWS Mod,2013-08-15 13:28:00,
2013-08-15 09:33:00,65.4,57.3,30.07,NW,319,0.0,0.0,75,0.00,,,0.00,Wunderground PWS Mod,2013-08-15 13:33:00,
2013-08-15 09:38:00,66.3,56.6,30.07,NE,46,0.0,0.0,71,0.00,,,0.00,Wunderground PWS Mod,2013-08-15 13:38:00,
2013-08-15 09:44:00,66.8,56.3,30.07,West,259,0.0,0.0,69,0.00,,,0.00,Wunderground PWS Mod,2013-08-15 13:44:00,
2013-08-15 09:49:00,67.4,56.5,30.07,NNW,344,0.0,0.0,68,0.00,,,0.00,Wunderground PWS Mod,2013-08-15 13:49:00,
2013-08-15 09:54:00,67.6,55.4,30.07,NE,41,0.0,0.0,65,0.00,,,0.00,Wunderground PWS Mod,2013-08-15 13:54:00,
2013-08-15 10:00:00,68.4,56.6,30.07,ESE,106,0.0,0.0,66,0.00,,,0.00,Wunderground PWS Mod,2013-08-15 14:00:00,
2013-08-15 10:05:00,69.0,55.9,30.07,WNW,292,0.0,0.0,63,0.00,,,0.00,Wunderground PWS Mod,2013-08-15 14:05:00,
2013-08-15 10:11:00,69.4,55.4,30.07,NNE,21,0.0,0.0,61,0.00,,,0.00,Wunderground PWS Mod,2013-08-15 14:11:00,
2013-08-15 10:16:00,69.5,52.1,30.07,NNE,22,0.0,0.0,54,0.00,,,0.00,Wunderground PWS Mod,2013-08-15 14:16:00,
2013-08-15 10:22:00,69.8,54.8,30.07,North,5,0.0,0.0,59,0.00,,,0.00,Wunderground PWS Mod,2013-08-15 14:22:00,
2013-08-15 10:27:00,70.3,53.9,30.07,NNE,12,0.0,0.0,56,0.00,,,0.00,Wunderground PWS Mod,2013-08-15 14:27:00,
2013-08-15 10:32:00,71.0,55.0,30.08,WNW,296,0.0,0.0,57,0.00,,,0.00,Wunderground PWS Mod,2013-08-15 14:32:00,
2013-08-15 10:38:00,71.5,56.4,30.08,NE,41,0.0,0.0,59,0.00,,,0.00,Wunderground PWS Mod,2013-08-15 14:38:00,
2013-08-15 10:44:00,71.8,54.3,30.08,NW,309,0.0,0.0,54,0.00,,,0.00,Wunderground PWS Mod,2013-08-15 14:44:00,
2013-08-15 10:49:00,72.3,54.7,30.08,SSW,198,0.0,0.0,54,0.00,,,0.00,Wunderground PWS Mod,2013-08-15 14:49:00,
2013-08-15 10:55:00,72.5,52.8,30.08,East,87,0.0,0.0,50,0.00,,,0.00,Wunderground PWS Mod,2013-08-15 14:55:00,
2013-08-15 11:01:00,72.5,55.4,30.07,North,5,0.0,0.0,55,0.00,,,0.00,Wunderground PWS Mod,2013-08-15 15:01:00,
2013-08-15 11:07:00,72.8,53.1,30.07,WSW,257,0.0,0.0,50,0.00,,,0.00,Wunderground PWS Mod,2013-08-15 15:07:00,
2013-08-15 11:13:00,72.6,52.3,30.07,NE,40,0.0,0.0,49,0.00,,,0.00,Wunderground PWS Mod,2013-08-15 15:13:00,
2013-08-15 11:20:00,72.3,52.1,30.07,North,11,0.0,0.0,49,0.00,,,0.00,Wunderground PWS Mod,2013-08-15 15:20:00,
2013-08-15 11:25:00,72.6,51.8,30.07,NNW,338,0.0,0.0,48,0.00,,,0.00,Wunderground PWS Mod,2013-08-15 15:25:00,
2013-08-15 11:30:00,73.0,52.1,30.07,ENE,61,0.0,0.0,48,0.00,,,0.00,Wunderground PWS Mod,2013-08-15 15:30:00,
2013-08-15 11:35:00,72.9,51.5,30.07,NNE,13,0.0,0.0,47,0.00,,,0.00,Wunderground PWS Mod,2013-08-15 15:35:00,
2013-08-15 11:41:00,72.9,51.5,30.07,North,355,0.0,0.0,47,0.00,,,0.00,Wunderground PWS Mod,2013-08-15 15:41:00,
2013-08-15 11:47:00,73.4,52.5,30.07,NNE,18,0.0,0.0,48,0.00,,,0.00,Wunderground PWS Mod,2013-08-15 15:47:00,
2013-08-15 11:52:00,73.8,51.1,30.07,North,355,0.0,0.0,45,0.00,,,0.00,Wunderground PWS Mod,2013-08-15 15:52:00,
2013-08-15 11:57:00,74.0,50.7,30.07,North,350,0.0,0.0,44,0.00,,,0.00,Wunderground PWS Mod,2013-08-15 15:57:00,
2013-08-15 12:03:00,73.6,50.9,30.07,NNW,333,0.0,0.0,45,0.00,,,0.00,Wunderground PWS Mod,2013-08-15 16:03:00,
2013-08-15 12:08:00,73.8,51.7,30.07,North,9,0.0,5.0,46,0.00,,,0.00,Wunderground PWS Mod,2013-08-15 16:08:00,
2013-08-15 12:14:00,73.6,50.9,30.07,NE,45,0.0,5.0,45,0.00,,,0.00,Wunderground PWS Mod,2013-08-15 16:14:00,
2013-08-15 12:15:00,74.4,54.5,30.06,WSW,240,0.0,5.0,50,0.00,,,0.00,Wunderground PWS Mod,2013-08-15 16:15:00,
2013-08-15 12:22:00,75.2,52.4,30.06,NNW,348,0.0,5.0,45,0.00,,,0.00,Wunderground PWS Mod,2013-08-15 16:22:00,
2013-08-15 12:27:00,75.5,52.7,30.06,WNW,292,0.0,5.0,45,0.00,,,0.00,Wunderground PWS Mod,2013-08-15 16:27:00,
2013-08-15 12:33:00,75.2,53.0,30.06,North,5,0.0,5.0,46,0.00,,,0.00,Wunderground PWS Mod,2013-08-15 16:33:00,
2013-08-15 12:38:00,75.5,52.7,30.06,WSW,253,0.0,5.0,45,0.00,,,0.00,Wunderground PWS Mod,2013-08-15 16:38:00,
2013-08-15 12:44:00,74.6,50.6,30.06,North,355,0.0,5.0,43,0.00,,,0.00,Wunderground PWS Mod,2013-08-15 16:44:00,
2013-08-15 12:50:00,74.6,53.0,30.05,WNW,286,0.0,5.0,47,0.00,,,0.00,Wunderground PWS Mod,2013-08-15 16:50:00,
2013-08-15 12:55:00,74.8,53.2,30.05,West,275,0.0,5.0,47,0.00,,,0.00,Wunderground PWS Mod,2013-08-15 16:55:00,
2013-08-15 13:01:00,75.3,53.1,30.05,WSW,246,0.0,5.0,46,0.00,,,0.00,Wunderground PWS Mod,2013-08-15 17:01:00,
2013-08-15 13:06:00,75.3,53.1,30.05,NNW,337,0.0,5.0,46,0.00,,,0.00,Wunderground PWS Mod,2013-08-15 17:06:00,
2013-08-15 13:12:00,74.4,54.0,30.05,NNE,29,0.0,5.0,49,0.00,,,0.00,Wunderground PWS Mod,2013-08-15 17:12:00,
2013-08-15 13:17:00,74.0,55.3,30.05,NNE,29,0.0,5.0,52,0.00,,,0.00,Wunderground PWS Mod,2013-08-15 17:17:00,
2013-08-15 13:23:00,73.8,52.3,30.05,NE,52,0.0,5.0,47,0.00,,,0.00,Wunderground PWS Mod,2013-08-15 17:23:00,
2013-08-15 13:29:00,74.4,53.4,30.05,WSW,252,0.0,5.0,48,0.00,,,0.00,Wunderground PWS Mod,2013-08-15 17:29:00,
2013-08-15 13:34:00,75.1,52.9,30.04,West,281,0.0,5.0,46,0.00,,,0.00,Wunderground PWS Mod,2013-08-15 17:34:00,
2013-08-15 13:39:00,75.1,53.5,30.04,West,281,0.0,5.0,47,0.00,,,0.00,Wunderground PWS Mod,2013-08-15 17:39:00,
2013-08-15 13:45:00,74.3,56.1,30.04,NE,55,0.0,5.0,53,0.00,,,0.00,Wunderground PWS Mod,2013-08-15 17:45:00,
2013-08-15 13:51:00,73.5,57.3,30.04,NNW,342,0.0,5.0,57,0.00,,,0.00,Wunderground PWS Mod,2013-08-15 17:51:00,
2013-08-15 13:56:00,73.5,57.3,30.04,West,268,0.0,5.0,57,0.00,,,0.00,Wunderground PWS Mod,2013-08-15 17:56:00,
2013-08-15 14:02:00,73.3,57.6,30.04,SSW,193,0.0,5.0,58,0.00,,,0.00,Wunderground PWS Mod,2013-08-15 18:02:00,
2013-08-15 14:07:00,73.1,57.4,30.04,North,355,0.0,5.0,58,0.00,,,0.00,Wunderground PWS Mod,2013-08-15 18:07:00,
2013-08-15 14:13:00,73.0,57.3,30.03,South,185,1.0,5.0,58,0.00,,,0.00,Wunderground PWS Mod,2013-08-15 18:13:00,
2013-08-15 14:19:00,73.3,58.1,30.04,SSE,163,1.0,5.0,59,0.00,,,0.00,Wunderground PWS Mod,2013-08-15 18:19:00,
2013-08-15 14:25:00,73.2,58.5,30.03,West,279,0.0,5.0,60,0.00,,,0.00,Wunderground PWS Mod,2013-08-15 18:25:00,
2013-08-15 14:33:00,73.6,58.9,30.04,WSW,240,0.0,5.0,60,0.00,,,0.00,Wunderground PWS Mod,2013-08-15 18:33:00,
2013-08-15 14:38:00,73.7,58.0,30.04,WSW,242,1.0,5.0,58,0.00,,,0.00,Wunderground PWS Mod,2013-08-15 18:38:00,
2013-08-15 14:44:00,73.5,58.8,30.03,West,265,0.0,5.0,60,0.00,,,0.00,Wunderground PWS Mod,2013-08-15 18:44:00,
2013-08-15 14:49:00,73.4,57.7,30.03,West,279,0.0,5.0,58,0.00,,,0.00,Wunderground PWS Mod,2013-08-15 18:49:00,
2013-08-15 14:55:00,73.0,57.8,30.03,WSW,253,0.0,5.0,59,0.00,,,0.00,Wunderground PWS Mod,2013-08-15 18:55:00,
2013-08-15 15:00:00,72.9,58.7,30.03,WSW,251,0.0,5.0,61,0.00,,,0.00,Wunderground PWS Mod,2013-08-15 19:00:00,
2013-08-15 15:05:00,72.8,57.6,30.03,SE,126,0.0,5.0,59,0.00,,,0.00,Wunderground PWS Mod,2013-08-15 19:05:00,
2013-08-15 15:10:00,72.2,57.1,30.03,SSE,148,1.0,5.0,59,0.00,,,0.00,Wunderground PWS Mod,2013-08-15 19:10:00,
2013-08-15 15:15:00,72.0,57.8,30.03,NW,306,0.0,5.0,61,0.00,,,0.00,Wunderground PWS Mod,2013-08-15 19:15:00,
2013-08-15 15:21:00,71.9,57.7,30.02,East,87,0.0,5.0,61,0.00,,,0.00,Wunderground PWS Mod,2013-08-15 19:21:00,
2013-08-15 15:29:00,71.7,57.1,30.02,South,186,0.0,5.0,60,0.00,,,0.00,Wunderground PWS Mod,2013-08-15 19:29:00,
2013-08-15 15:34:00,71.7,57.1,30.02,WSW,247,1.0,5.0,60,0.00,,,0.00,Wunderground PWS Mod,2013-08-15 19:34:00,
2013-08-15 15:40:00,71.5,55.9,30.02,East,92,1.0,5.0,58,0.00,,,0.00,Wunderground PWS Mod,2013-08-15 19:40:00,
2013-08-15 15:45:00,71.3,56.7,30.02,SE,130,0.0,5.0,60,0.00,,,0.00,Wunderground PWS Mod,2013-08-15 19:45:00,
2013-08-15 15:51:00,71.4,57.2,30.02,South,188,0.0,5.0,61,0.00,,,0.00,Wunderground PWS Mod,2013-08-15 19:51:00,
2013-08-15 15:57:00,71.8,57.6,30.02,North,355,0.0,5.0,61,0.00,,,0.00,Wunderground PWS Mod,2013-08-15 19:57:00,
2013-08-15 16:03:00,72.1,56.5,30.02,WSW,251,0.0,5.0,58,0.00,,,0.00,Wunderground PWS Mod,2013-08-15 20:03:00,
2013-08-15 16:08:00,72.2,56.1,30.02,South,180,1.0,7.0,57,0.00,,,0.00,Wunderground PWS Mod,2013-08-15 20:08:00,
2013-08-15 16:12:00,72.1,56.5,30.02,WSW,248,0.0,7.0,58,0.00,,,0.00,Wunderground PWS Mod,2013-08-15 20:12:00,
2013-08-15 16:13:00,72.2,57.1,30.02,WSW,239,0.0,7.0,59,0.00,,,0.00,Wunderground PWS Mod,2013-08-15 20:13:00,
2013-08-15 16:19:00,72.1,57.0,30.02,South,170,0.0,7.0,59,0.00,,,0.00,Wunderground PWS Mod,2013-08-15 20:19:00,
2013-08-15 16:24:00,72.0,55.9,30.02,West,276,0.0,7.0,57,0.00,,,0.00,Wunderground PWS Mod,2013-08-15 20:24:00,
2013-08-15 16:29:00,72.0,55.9,30.02,SW,215,0.0,7.0,57,0.00,,,0.00,Wunderground PWS Mod,2013-08-15 20:29:00,
2013-08-15 16:35:00,72.0,55.4,30.02,WSW,248,0.0,7.0,56,0.00,,,0.00,Wunderground PWS Mod,2013-08-15 20:35:00,
2013-08-15 16:40:00,72.0,56.4,30.02,SW,217,0.0,7.0,58,0.00,,,0.00,Wunderground PWS Mod,2013-08-15 20:40:00,
2013-08-15 16:45:00,72.0,55.9,30.02,SSW,205,0.0,7.0,57,0.00,,,0.00,Wunderground PWS Mod,2013-08-15 20:45:00,
2013-08-15 16:51:00,71.9,55.8,30.02,WSW,245,0.0,7.0,57,0.00,,,0.00,Wunderground PWS Mod,2013-08-15 20:51:00,
2013-08-15 16:56:00,71.8,54.8,30.02,South,175,0.0,7.0,55,0.00,,,0.00,Wunderground PWS Mod,2013-08-15 20:56:00,
2013-08-15 17:02:00,71.7,54.7,30.02,WNW,299,0.0,7.0,55,0.00,,,0.00,Wunderground PWS Mod,2013-08-15 21:02:00,
2013-08-15 17:07:00,71.6,54.6,30.02,SW,234,0.0,7.0,55,0.00,,,0.00,Wunderground PWS Mod,2013-08-15 21:07:00,
2013-08-15 17:12:00,71.6,55.6,30.02,WSW,241,0.0,7.0,57,0.00,,,0.00,Wunderground PWS Mod,2013-08-15 21:12:00,
2013-08-15 17:18:00,71.4,55.4,30.02,SW,227,0.0,7.0,57,0.00,,,0.00,Wunderground PWS Mod,2013-08-15 21:18:00,
2013-08-15 17:24:00,71.3,55.8,30.02,West,275,0.0,7.0,58,0.00,,,0.00,Wunderground PWS Mod,2013-08-15 21:24:00,
2013-08-15 17:29:00,71.3,55.3,30.02,West,259,0.0,7.0,57,0.00,,,0.00,Wunderground PWS Mod,2013-08-15 21:29:00,
2013-08-15 17:36:00,71.2,56.1,30.02,WSW,246,0.0,7.0,59,0.00,,,0.00,Wunderground PWS Mod,2013-08-15 21:36:00,
2013-08-15 17:41:00,71.0,55.0,30.02,NW,318,0.0,7.0,57,0.00,,,0.00,Wunderground PWS Mod,2013-08-15 21:41:00,
2013-08-15 17:47:00,70.9,54.9,30.02,WSW,246,0.0,7.0,57,0.00,,,0.00,Wunderground PWS Mod,2013-08-15 21:47:00,
2013-08-15 17:52:00,70.9,54.9,30.02,South,178,0.0,7.0,57,0.00,,,0.00,Wunderground PWS Mod,2013-08-15 21:52:00,
2013-08-15 17:57:00,70.8,55.3,30.02,WSW,242,0.0,7.0,58,0.00,,,0.00,Wunderground PWS Mod,2013-08-15 21:57:00,
2013-08-15 18:04:00,70.6,55.1,30.02,WSW,249,0.0,7.0,58,0.00,,,0.00,Wunderground PWS Mod,2013-08-15 22:04:00,
2013-08-15 18:10:00,70.6,55.1,30.02,SSW,205,0.0,7.0,58,0.00,,,0.00,Wunderground PWS Mod,2013-08-15 22:10:00,
2013-08-15 18:15:00,70.4,55.8,30.02,SSW,205,0.0,7.0,60,0.00,,,0.00,Wunderground PWS Mod,2013-08-15 22:15:00,
2013-08-15 18:21:00,70.3,56.2,30.02,South,184,0.0,7.0,61,0.00,,,0.00,Wunderground PWS Mod,2013-08-15 22:21:00,
2013-08-15 18:26:00,70.1,56.0,30.02,South,180,0.0,7.0,61,0.00,,,0.00,Wunderground PWS Mod,2013-08-15 22:26:00,
2013-08-15 18:31:00,70.0,55.0,30.02,SW,224,0.0,7.0,59,0.00,,,0.00,Wunderground PWS Mod,2013-08-15 22:31:00,
2013-08-15 18:37:00,69.9,55.4,30.02,SW,224,0.0,7.0,60,0.00,,,0.00,Wunderground PWS Mod,2013-08-15 22:37:00,
2013-08-15 18:42:00,69.8,55.3,30.02,SW,224,0.0,7.0,60,0.00,,,0.00,Wunderground PWS Mod,2013-08-15 22:42:00,
2013-08-15 18:48:00,69.6,55.6,30.02,SW,224,0.0,7.0,61,0.00,,,0.00,Wunderground PWS Mod,2013-08-15 22:48:00,
2013-08-15 18:54:00,69.3,55.7,30.02,SW,224,0.0,7.0,62,0.00,,,0.00,Wunderground PWS Mod,2013-08-15 22:54:00,
2013-08-15 18:59:00,69.1,56.0,30.02,SW,224,0.0,7.0,63,0.00,,,0.00,Wunderground PWS Mod,2013-08-15 22:59:00,
2013-08-15 19:05:00,68.9,56.2,30.03,SW,224,0.0,7.0,64,0.00,,,0.00,Wunderground PWS Mod,2013-08-15 23:05:00,
2013-08-15 19:11:00,68.6,56.4,30.03,SW,224,0.0,7.0,65,0.00,,,0.00,Wunderground PWS Mod,2013-08-15 23:11:00,
2013-08-15 19:16:00,68.4,56.6,30.03,SW,224,0.0,7.0,66,0.00,,,0.00,Wunderground PWS Mod,2013-08-15 23:16:00,
2013-08-15 19:22:00,68.0,56.6,30.03,SW,224,0.0,7.0,67,0.00,,,0.00,Wunderground PWS Mod,2013-08-15 23:22:00,
2013-08-15 19:27:00,67.7,56.3,30.04,SW,224,0.0,7.0,67,0.00,,,0.00,Wunderground PWS Mod,2013-08-15 23:27:00,
2013-08-15 19:32:00,67.4,55.6,30.04,SW,224,0.0,7.0,66,0.00,,,0.00,Wunderground PWS Mod,2013-08-15 23:32:00,
2013-08-15 19:38:00,67.2,55.9,30.04,SW,224,0.0,7.0,67,0.00,,,0.00,Wunderground PWS Mod,2013-08-15 23:38:00,
2013-08-15 19:44:00,66.9,56.0,30.05,SW,224,0.0,7.0,68,0.00,,,0.00,Wunderground PWS Mod,2013-08-15 23:44:00,
2013-08-15 19:50:00,66.7,55.8,30.05,SW,224,0.0,7.0,68,0.00,,,0.00,Wunderground PWS Mod,2013-08-15 23:50:00,
2013-08-15 19:55:00,66.5,56.0,30.05,SW,224,0.0,7.0,69,0.00,,,0.00,Wunderground PWS Mod,2013-08-15 23:55:00,
2013-08-15 20:00:00,66.2,56.1,30.05,WSW,246,0.0,7.0,70,0.00,,,0.00,Wunderground PWS Mod,2013-08-16 00:00:00,
2013-08-15 20:06:00,66.1,56.4,30.06,WSW,246,0.0,0.0,71,0.00,,,0.00,Wunderground PWS Mod,2013-08-16 00:06:00,
2013-08-15 20:12:00,65.9,56.6,30.06,WSW,246,0.0,0.0,72,0.00,,,0.00,Wunderground PWS Mod,2013-08-16 00:12:00,
2013-08-15 20:14:00,66.2,56.1,30.05,N/A,-737280,0.0,0.0,70,0.00,,,0.00,Wunderground PWS Mod,2013-08-16 00:14:00,
2013-08-15 20:17:00,65.8,56.9,30.06,WSW,246,0.0,0.0,73,0.00,,,0.00,Wunderground PWS Mod,2013-08-16 00:17:00,
2013-08-15 20:23:00,65.7,57.2,30.06,WSW,246,0.0,0.0,74,0.00,,,0.00,Wunderground PWS Mod,2013-08-16 00:23:00,
2013-08-15 20:28:00,65.5,57.4,30.07,WSW,246,0.0,0.0,75,0.00,,,0.00,Wunderground PWS Mod,2013-08-16 00:28:00,
2013-08-15 20:34:00,65.4,57.3,30.07,WSW,254,0.0,0.0,75,0.00,,,0.00,Wunderground PWS Mod,2013-08-16 00:34:00,
2013-08-15 20:40:00,65.3,57.2,30.07,WSW,254,0.0,0.0,75,0.00,,,0.00,Wunderground PWS Mod,2013-08-16 00:40:00,
2013-08-15 20:45:00,65.2,57.1,30.07,WSW,254,0.0,0.0,75,0.00,,,0.00,Wunderground PWS Mod,2013-08-16 00:45:00,
2013-08-15 20:50:00,65.2,57.1,30.07,SW,227,0.0,0.0,75,0.00,,,0.00,Wunderground PWS Mod,2013-08-16 00:50:00,
2013-08-15 20:55:00,65.3,57.2,30.07,WSW,239,0.0,0.0,75,0.00,,,0.00,Wunderground PWS Mod,2013-08-16 00:55:00,
2013-08-15 21:01:00,65.3,57.2,30.08,SW,236,0.0,0.0,75,0.00,,,0.00,Wunderground PWS Mod,2013-08-16 01:01:00,
2013-08-15 21:06:00,65.3,57.2,30.08,SW,236,0.0,0.0,75,0.00,,,0.00,Wunderground PWS Mod,2013-08-16 01:06:00,
2013-08-15 21:12:00,65.3,57.2,30.08,WSW,238,0.0,0.0,75,0.00,,,0.00,Wunderground PWS Mod,2013-08-16 01:12:00,
2013-08-15 21:17:00,65.2,57.4,30.09,SW,234,0.0,0.0,76,0.00,,,0.00,Wunderground PWS Mod,2013-08-16 01:17:00,
2013-08-15 21:23:00,65.1,57.3,30.09,SW,234,0.0,0.0,76,0.00,,,0.00,Wunderground PWS Mod,2013-08-16 01:23:00,
2013-08-15 21:28:00,65.0,57.2,30.09,WSW,249,0.0,0.0,76,0.00,,,0.00,Wunderground PWS Mod,2013-08-16 01:28:00,
2013-08-15 21:35:00,65.0,57.6,30.09,WSW,249,0.0,0.0,77,0.00,,,0.00,Wunderground PWS Mod,2013-08-16 01:35:00,
2013-08-15 21:40:00,65.1,57.7,30.09,WSW,245,0.0,0.0,77,0.00,,,0.00,Wunderground PWS Mod,2013-08-16 01:40:00,
2013-08-15 21:46:00,65.1,57.7,30.09,WSW,246,0.0,0.0,77,0.00,,,0.00,Wunderground PWS Mod,2013-08-16 01:46:00,
2013-08-15 21:51:00,65.1,58.1,30.09,WSW,246,0.0,0.0,78,0.00,,,0.00,Wunderground PWS Mod,2013-08-16 01:51:00,
2013-08-15 21:57:00,65.1,58.1,30.09,WSW,246,0.0,0.0,78,0.00,,,0.00,Wunderground PWS Mod,2013-08-16 01:57:00,
2013-08-15 22:03:00,65.0,58.0,30.09,WSW,246,0.0,0.0,78,0.00,,,0.00,Wunderground PWS Mod,2013-08-16 02:03:00,
2013-08-15 22:08:00,64.9,58.2,30.09,WSW,246,0.0,0.0,79,0.00,,,0.00,Wunderground PWS Mod,2013-08-16 02:08:00,
2013-08-15 22:14:00,64.8,58.1,30.09,WSW,246,0.0,0.0,79,0.00,,,0.00,Wunderground PWS Mod,2013-08-16 02:14:00,
2013-08-15 22:20:00,64.7,58.4,30.09,WSW,246,0.0,0.0,80,0.00,,,0.00,Wunderground PWS Mod,2013-08-16 02:20:00,
2013-08-15 22:25:00,64.6,58.3,30.09,WSW,246,0.0,0.0,80,0.00,,,0.00,Wunderground PWS Mod,2013-08-16 02:25:00,
2013-08-15 22:31:00,64.5,58.2,30.09,WSW,246,0.0,0.0,80,0.00,,,0.00,Wunderground PWS Mod,2013-08-16 02:31:00,
2013-08-15 22:36:00,64.4,58.4,30.09,WSW,246,0.0,0.0,81,0.00,,,0.00,Wunderground PWS Mod,2013-08-16 02:36:00,
2013-08-15 22:42:00,64.3,58.7,30.09,WSW,246,0.0,0.0,82,0.00,,,0.00,Wunderground PWS Mod,2013-08-16 02:42:00,
2013-08-15 22:47:00,64.2,58.6,30.09,WSW,246,0.0,0.0,82,0.00,,,0.00,Wunderground PWS Mod,2013-08-16 02:47:00,
2013-08-15 22:53:00,64.1,58.5,30.09,WSW,246,0.0,0.0,82,0.00,,,0.00,Wunderground PWS Mod,2013-08-16 02:53:00,
2013-08-15 22:58:00,64.0,58.4,30.09,WSW,246,0.0,0.0,82,0.00,,,0.00,Wunderground PWS Mod,2013-08-16 02:58:00,
2013-08-15 23:04:00,63.9,58.6,30.09,WSW,247,0.0,0.0,83,0.00,,,0.00,Wunderground PWS Mod,2013-08-16 03:04:00,
2013-08-15 23:10:00,63.8,58.5,30.09,WSW,247,0.0,0.0,83,0.00,,,0.00,Wunderground PWS Mod,2013-08-16 03:10:00,
2013-08-15 23:15:00,63.7,58.8,30.09,WSW,247,0.0,0.0,84,0.00,,,0.00,Wunderground PWS Mod,2013-08-16 03:15:00,
2013-08-15 23:20:00,63.7,58.8,30.10,WSW,248,0.0,0.0,84,0.00,,,0.00,Wunderground PWS Mod,2013-08-16 03:20:00,
2013-08-15 23:25:00,63.7,58.8,30.10,WSW,248,0.0,0.0,84,0.00,,,0.00,Wunderground PWS Mod,2013-08-16 03:25:00,
2013-08-15 23:31:00,63.6,58.7,30.10,WSW,248,0.0,0.0,84,0.00,,,0.00,Wunderground PWS Mod,2013-08-16 03:31:00,
2013-08-15 23:36:00,63.6,59.0,30.10,WSW,247,0.0,0.0,85,0.00,,,0.00,Wunderground PWS Mod,2013-08-16 03:36:00,
2013-08-15 23:42:00,63.6,59.0,30.10,WSW,248,0.0,0.0,85,0.00,,,0.00,Wunderground PWS Mod,2013-08-16 03:42:00,
2013-08-15 23:47:00,63.6,59.0,30.10,WSW,248,0.0,0.0,85,0.00,,,0.00,Wunderground PWS Mod,2013-08-16 03:47:00,
2013-08-15 23:53:00,63.6,59.0,30.10,WSW,248,0.0,0.0,85,0.00,,,0.00,Wunderground PWS Mod,2013-08-16 03:53:00,
2013-08-15 23:58:00,63.5,59.2,30.10,WSW,248,0.0,0.0,86,0.00,,,0.00,Wunderground PWS Mod,2013-08-16 03:58:00,